STARLINK-11146, 60729

Orbit data source: Space-Track

STARLINK-11146, 60729 is a payload satellite owned by SpaceX/Seattle (US) in LEO that was launched on Wed, 28 Aug 2024 UTC via an FALCON 9 launch vehicle from the Air Force Eastern Test Range (AFETR). Payload-class satellites include a variety of spacecraft equipped with specific instruments for various scientific and technological missions. These include communications satellites like Starlink; space stations such as the ISS; scientific satellites like the Hubble; Earth observation satellites from companies like Planet Labs, Umbra, and HawkEye 360; GPS; miniature CubeSats for education and research; and military/defense satellites.

Loading next visibility...
Identifier
60729, 2024-152K
Orbit
LEO
Last TLE update
20 hours ago
Origin
Manufacturer
SpaceX/Seattle
Mission
Operational Commercial Communications
Bus & Motor
STARLINK V2M, Unknown motor
Mass
730 kg wet, ~700 kg dry
Launch date (UTC)
2024-08-28 (8 months ago)
Launch vehicle
FALCON 9
Launch site
Air Force Eastern Test Range (AFETR)
Object type
Payload
Rocket body
Debris
Shape & HBR
Box + 2 Pan, 29 m
Radar Cross Section
36.964 m², Large (>1 m²)

Expand to show TLE details & history

TLE from 20 hours ago
0 STARLINK-11146
1 60729U 24152K   25128.43310047  .00001795  00000-0  19671-4 0  9998
2 60729  53.1586 180.8589 0001128 125.8209 234.2914 15.69711665 41021
Epoch: 2025-05-08T10:23Z
Definitive object data (Epoch: 2025-05-08T10:23:39.88Z)
Latitude
-0.00001°
Longitude
158.43905°
Altitude
361.081 km
Speed
7.694 km/s
True Right ascension
12h 03m 26s
True Declination
0° 00' 00"
Sunlit
Object was in full shadow at TLE epoch
Visualization TLE readout
Latitude
-13.10928°
Longitude
144.38046°
Altitude
363.859 km
Speed
7.691 km/s
Apparent Right ascension
07h 55m 42s
Apparent Declination
-48° 36' 33"
Sunlit
Object is in full shadow
Visualization observer readout
Local Sidereal Time
14:20:10
Azimuth
231.115° WSW
Elevation
-32.373°
Doppler factor
1
Orbital elements
Apogee altitude
360.743 km
Perigee altitude
359.223 km
Semi-major axis
6,738.12 km
Eccentricity
0.0001128
Inclination
53.1586°
RAAN
180.8589°
Arg. of periapsis
125.8209°
True anomaly
234.28091°
Mean anomaly
234.2914°
Eccentric anomaly
234.28615°
Mean motion
3.92405 °/min
BSTAR
0.000019671
Orbital period
91.74 mins
Loading maneuver chart data...
Loading SW <> Apogee altitude chart data...
Loading historical data...
Loading historical data...
Loading historical data...
Loading historical data...
Loading historical data...
Loading historical data...
Loading historical data...

STARLINK-11146 Visibility forecast

Observer location: undefined°, undefined°

Span
Click to sort rows by Start time (UTC) header in descending order
Start Az.
Max El. time (UTC)
Max El. Az.
Max El.
End time (UTC)
End Az.
5 mins2025-05-09 06:27:22.779Z244.385° WSW2025-05-09 06:29:22.779Z289.022° WNW38.262°2025-05-09 06:32:22.779Z41.908° NE
|